Greeley, CO

3:58 AM MDT on September 27, 2016 (GMT -0600)
Greeley-Weld County

Weather History for KGXY - June, 2013

Change the Weather History Date:

Monday, June 10, 2013

  Actual Average Record
Temperature  
Mean Temperature 74 °F -  
Max Temperature 98 °F - 98 °F (1973)
Min Temperature 51 °F - 40 °F (1984)
Degree Days  
Heating Degree Days 0    
Month to date heating degree days  
Cooling Degree Days 10    
Month to date cooling degree days  
Growing Degree Days 24 (Base 50)    
Moisture  
Dew Point 41 °F    
Average Humidity 36    
Maximum Humidity 67    
Minimum Humidity 11    
Precipitation  
Precipitation 0.00 in - 0.77 in (2005)
Sea Level Pressure  
Sea Level Pressure 29.90 in    
Wind  
Wind Speed 5 mph (NNW)    
Max Wind Speed 17 mph    
Max Gust Speed 26 mph    
Visibility 10 miles    
Events      
T = Trace of Precipitation, MM = Missing Value Source: NWS Daily Summary

Daily Weather History Graph

Daily Weather History Graph

Search for Another Location

Airport or City:

Trip Planner

Search our weather history database for the weather conditions in past years. The results will help you decide how hot, cold, wet, or windy it might be!

Date:

Astronomy

Jun. 10, 2013 Rise Set
Actual Time 5:27 AM MDT 8:28 PM MDT
Civil Twilight 4:54 AM MDT 9:01 PM MDT
Nautical Twilight 4:13 AM MDT 9:43 PM MDT
Astronomical Twilight 3:24 AM MDT 10:32 PM MDT
Moon 7:19 AM MDT (6/10) 9:56 PM MDT (6/10)
Length of Visible Light 16h 06m
Length of Day
15h 00m
Waxing Crescent, 4% of the Moon is Illuminated
Jun 10
Waxing Crescent
Jun 16
First Quarter
Jun 23
Full
Jun 29
Last Quarter
Jul 8
New

Hourly Weather History & Observations

Time (MDT) Temp. Dew Point Humidity Pressure Visibility Wind Dir Wind Speed Gust Speed Precip Events Conditions
12:15 AM 57.2 °F 41.0 °F 55% 29.92 in 10.0 mi East 3.5 mph - N/A   Clear
12:35 AM 57.2 °F 41.0 °F 55% 29.92 in 10.0 mi ESE 5.8 mph - N/A   Clear
12:55 AM 59.0 °F 41.0 °F 51% 29.92 in 10.0 mi Calm Calm - N/A   Clear
1:35 AM 55.4 °F 42.8 °F 63% 29.91 in 10.0 mi South 4.6 mph - N/A   Clear
1:55 AM 57.2 °F 42.8 °F 59% 29.91 in 10.0 mi SW 3.5 mph - N/A   Clear
2:15 AM 57.2 °F 41.0 °F 55% 29.90 in 10.0 mi WNW 3.5 mph - N/A   Clear
2:35 AM 55.4 °F 41.0 °F 58% 29.91 in 10.0 mi Calm Calm - N/A   Clear
2:55 AM 53.6 °F 41.0 °F 62% 29.91 in 10.0 mi NW 4.6 mph - N/A   Clear
3:15 AM 53.6 °F 41.0 °F 62% 29.90 in 10.0 mi NW 6.9 mph - N/A   Clear
3:35 AM 51.8 °F 41.0 °F 67% 29.91 in 10.0 mi NW 8.1 mph - N/A   Clear
3:55 AM 51.8 °F 41.0 °F 67% 29.91 in 10.0 mi NW 6.9 mph - N/A   Clear
4:15 AM 51.8 °F 39.2 °F 62% 29.91 in 10.0 mi WNW 4.6 mph - N/A   Clear
4:35 AM 51.8 °F 39.2 °F 62% 29.92 in 10.0 mi WNW 5.8 mph - N/A   Clear
4:55 AM 51.8 °F 39.2 °F 62% 29.91 in 10.0 mi WNW 8.1 mph - N/A   Clear
5:15 AM 51.8 °F 39.2 °F 62% 29.91 in 10.0 mi WNW 4.6 mph - N/A   Clear
5:35 AM 51.8 °F 39.2 °F 62% 29.92 in 10.0 mi NW 5.8 mph - N/A   Clear
5:55 AM 51.8 °F 39.2 °F 62% 29.92 in 10.0 mi West 3.5 mph - N/A   Clear
6:15 AM 53.6 °F 39.2 °F 58% 29.93 in 10.0 mi NNW 4.6 mph - N/A   Clear
6:35 AM 55.4 °F 42.8 °F 63% 29.93 in 10.0 mi NW 3.5 mph - N/A   Clear
6:55 AM 57.2 °F 44.6 °F 63% 29.94 in 10.0 mi NW 4.6 mph - N/A   Clear
7:15 AM 60.8 °F 44.6 °F 55% 29.94 in 10.0 mi Calm Calm - N/A   Clear
7:35 AM 64.4 °F 44.6 °F 49% 29.95 in 10.0 mi Calm Calm - N/A   Clear
7:55 AM 64.4 °F 44.6 °F 49% 29.95 in 10.0 mi Calm Calm - N/A   Clear
8:15 AM 69.8 °F 46.4 °F 43% 29.95 in 10.0 mi SSW 4.6 mph - N/A   Clear
8:35 AM 73.4 °F 46.4 °F 38% 29.95 in 10.0 mi Calm Calm - N/A   Clear
8:55 AM 73.4 °F 48.2 °F 41% 29.96 in 10.0 mi Calm Calm - N/A   Clear
9:15 AM 77.0 °F 48.2 °F 36% 29.96 in 10.0 mi Calm Calm - N/A   Clear
9:35 AM 75.2 °F 46.4 °F 36% 29.96 in 10.0 mi Calm Calm - N/A   Clear
10:15 AM 80.6 °F 46.4 °F 30% 29.96 in 10.0 mi South 3.5 mph - N/A   Clear
10:35 AM 84.2 °F 44.6 °F 25% 29.95 in 10.0 mi SSW 3.5 mph - N/A   Clear
10:55 AM 86.0 °F 46.4 °F 25% 29.95 in 10.0 mi South 3.5 mph - N/A   Clear
11:15 AM 89.6 °F 48.2 °F 24% 29.95 in 10.0 mi South 6.9 mph - N/A   Clear
11:35 AM 93.2 °F 44.6 °F 19% 29.94 in 10.0 mi SSE 5.8 mph - N/A   Clear
11:55 AM 95.0 °F 39.2 °F 14% 29.93 in 10.0 mi SE 5.8 mph - N/A   Clear
12:15 PM 96.8 °F 41.0 °F 15% 29.93 in 10.0 mi South 9.2 mph - N/A   Clear
12:35 PM 96.8 °F 37.4 °F 13% 29.92 in 10.0 mi SSW 12.7 mph - N/A   Clear
12:55 PM 96.8 °F 35.6 °F 12% 29.91 in 10.0 mi South 9.2 mph - N/A   Clear
1:15 PM 96.8 °F 35.6 °F 12% 29.90 in 10.0 mi SSE 9.2 mph - N/A   Clear
1:35 PM 98.6 °F 35.6 °F 11% 29.89 in 10.0 mi South 6.9 mph - N/A   Clear
1:55 PM 98.6 °F 35.6 °F 11% 29.89 in 10.0 mi SSE 5.8 mph - N/A   Clear
2:15 PM 98.6 °F 35.6 °F 11% 29.88 in 10.0 mi Calm Calm - N/A   Clear
2:35 PM 98.6 °F 35.6 °F 11% 29.87 in 10.0 mi Calm Calm - N/A   Clear
2:55 PM 96.8 °F 35.6 °F 12% 29.86 in 9.0 mi NE 6.9 mph - N/A   Clear
3:15 PM 95.0 °F 35.6 °F 12% 29.86 in 10.0 mi North 6.9 mph - N/A   Clear
3:35 PM 96.8 °F 35.6 °F 12% 29.86 in 10.0 mi WNW 8.1 mph - N/A   Clear
3:55 PM 96.8 °F 35.6 °F 12% 29.86 in 10.0 mi NW 8.1 mph - N/A   Clear
4:15 PM 96.8 °F 35.6 °F 12% 29.86 in 10.0 mi WNW 16.1 mph 26.5 mph N/A   Clear
4:35 PM 96.8 °F 35.6 °F 12% 29.86 in 10.0 mi WNW 11.5 mph - N/A   Clear
4:55 PM 95.0 °F 35.6 °F 12% 29.86 in 10.0 mi West 16.1 mph 21.9 mph N/A   Clear
5:15 PM 93.2 °F 33.8 °F 12% 29.86 in 10.0 mi WNW 17.3 mph 21.9 mph N/A   Clear
5:35 PM 93.2 °F 33.8 °F 12% 29.87 in 10.0 mi Calm Calm - N/A   Clear
5:55 PM 89.6 °F 39.2 °F 17% 29.87 in 10.0 mi SSE 8.1 mph - N/A   Clear
6:15 PM 91.4 °F 39.2 °F 16% 29.86 in 10.0 mi SE 9.2 mph - N/A   Clear
6:35 PM 93.2 °F 35.6 °F 13% 29.85 in 10.0 mi South 10.4 mph - N/A   Clear
6:55 PM 87.8 °F 42.8 °F 21% 29.86 in 7.0 mi East 6.9 mph - N/A   Clear
7:15 PM 84.2 °F 42.8 °F 23% 29.86 in 8.0 mi ENE 8.1 mph - N/A   Clear
7:35 PM 80.6 °F 46.4 °F 30% 29.86 in 9.0 mi NNE 8.1 mph - N/A   Clear
7:55 PM 80.6 °F 46.4 °F 30% 29.86 in 10.0 mi NNE 8.1 mph - N/A   Clear
8:15 PM 77.0 °F 46.4 °F 34% 29.86 in 10.0 mi NE 5.8 mph - N/A   Clear
8:35 PM 75.2 °F 46.4 °F 36% 29.86 in 7.0 mi NE 8.1 mph - N/A   Clear
8:55 PM 73.4 °F 46.4 °F 38% 29.86 in 10.0 mi NE 3.5 mph - N/A   Clear
9:15 PM 73.4 °F 46.4 °F 38% 29.87 in 10.0 mi NE 5.8 mph - N/A   Clear
9:35 PM 71.6 °F 46.4 °F 41% 29.88 in 10.0 mi ENE 4.6 mph - N/A   Clear
9:55 PM 71.6 °F 46.4 °F 41% 29.89 in 8.0 mi East 3.5 mph - N/A   Clear
10:15 PM 71.6 °F 44.6 °F 38% 29.89 in 10.0 mi NE 10.4 mph - N/A   Clear
10:35 PM 68.0 °F 44.6 °F 43% 29.89 in 10.0 mi ENE 6.9 mph - N/A   Clear
10:55 PM 68.0 °F 44.6 °F 43% 29.90 in 10.0 mi Calm Calm - N/A   Clear
11:15 PM 68.0 °F 42.8 °F 40% 29.90 in 10.0 mi NNE 3.5 mph - N/A   Clear
11:35 PM 64.4 °F 44.6 °F 49% 29.89 in 10.0 mi Calm Calm - N/A   Clear
11:55 PM 64.4 °F 44.6 °F 49% 29.89 in 10.0 mi ESE 6.9 mph - N/A   Clear